Location: Baumgarten
(49.0970°N, 12.7493°E)
Time: 02:58:20
(UTC+00:00)

Resurs 1-4 Rocket - Pass Details

Date: 05 July 2020
Orbit: 800 x 814 km, 98.6° (Epoch: 04 August)

Event Time Altitude Azimuth Distance (km) Brightness Sun altitude
Rises 23:38:29 0° 26° (NNE) 3,351 6.7 -18.0°
Reaches altitude 10° 23:41:25 10° 42° (NE) 2,413 5.4 -18.0°
Maximum altitude 23:45:26 21° 91° (E) 1,746 3.9 -17.9°
Enters shadow 23:48:45 13° 134° (SE) 2,217 4.1 -17.8°
